PDA6014 UKBB-LYTV

Flight info

Callsign PDA6014
Flight time N/A
Altitude 32000
Route KAFEL N164 BAMUD/N0455F320 DCT VAMES DCT ELROM DCT BUKAN DCT OLMIP DCT DIRER DCT XENIT DCT NANER DCT MODRA DCT MOJ DCT POD
Aircraft B738/M-SDE2E3FGHIRWXY/LB1

Departure

Time N/A
Airport Boryspil International Airport (UKBB)

Arrival

Time 2026-04-29 13:24
Airport Tivat Airport (LYTV)
Time Latitude Longitude Altitude Speed Heading
2026-04-29 13:08 42.54371 19.34471 17588 ft 377 kts 207°
2026-04-29 13:08 42.51985 19.33103 17054 ft 373 kts 207°
2026-04-29 13:08 42.50326 19.32152 16679 ft 371 kts 207°
2026-04-29 13:08 42.47978 19.30809 16126 ft 368 kts 206°
2026-04-29 13:09 42.45631 19.29470 15588 ft 365 kts 206°
2026-04-29 13:09 42.43316 19.28149 15049 ft 362 kts 206°
2026-04-29 13:09 42.41004 19.26830 14506 ft 359 kts 206°
2026-04-29 13:09 42.38691 19.25549 13960 ft 356 kts 204°
2026-04-29 13:10 42.36362 19.24490 13442 ft 355 kts 199°
2026-04-29 13:10 42.34008 19.23616 12919 ft 353 kts 197°
2026-04-29 13:10 42.31634 19.22813 12391 ft 350 kts 196°
2026-04-29 13:10 42.29272 19.22024 11863 ft 348 kts 196°
2026-04-29 13:11 42.26963 19.21237 11346 ft 346 kts 196°
2026-04-29 13:11 42.24619 19.20417 10812 ft 343 kts 196°
2026-04-29 13:11 42.22354 19.19611 10315 ft 340 kts 196°
2026-04-29 13:11 42.20085 19.18798 10089 ft 330 kts 196°
2026-04-29 13:12 42.17909 19.18016 9872 ft 320 kts 196°
2026-04-29 13:12 42.15787 19.17253 9643 ft 311 kts 196°
2026-04-29 13:12 42.13731 19.16514 9419 ft 303 kts 196°
2026-04-29 13:12 42.11730 19.15796 9194 ft 296 kts 196°
2026-04-29 13:13 42.09750 19.15087 9041 ft 285 kts 196°
2026-04-29 13:13 42.07926 19.14319 9055 ft 268 kts 204°
2026-04-29 13:13 42.06402 19.13054 9042 ft 250 kts 227°
2026-04-29 13:13 42.05497 19.11135 8875 ft 240 kts 250°
2026-04-29 13:14 42.04940 19.09046 8594 ft 239 kts 252°
2026-04-29 13:14 42.04369 19.06923 8218 ft 242 kts 250°
2026-04-29 13:14 42.03773 19.04822 7859 ft 244 kts 249°
2026-04-29 13:14 42.03154 19.02698 7547 ft 244 kts 249°
2026-04-29 13:15 42.02535 19.00582 7226 ft 244 kts 249°
2026-04-29 13:15 42.01988 18.98434 6912 ft 242 kts 258°
2026-04-29 13:15 42.01952 18.96210 6631 ft 240 kts 284°
2026-04-29 13:15 42.02684 18.94211 6336 ft 238 kts 308°
2026-04-29 13:16 42.03860 18.92673 6022 ft 237 kts 324°
2026-04-29 13:16 42.05302 18.91653 5755 ft 236 kts 339°
2026-04-29 13:16 42.06847 18.90920 5454 ft 236 kts 341°
2026-04-29 13:16 42.08399 18.90201 5146 ft 235 kts 340°
2026-04-29 13:17 42.09936 18.89445 4863 ft 234 kts 339°
2026-04-29 13:17 42.11445 18.88677 4602 ft 233 kts 339°
2026-04-29 13:17 42.12949 18.87902 4488 ft 225 kts 339°
2026-04-29 13:17 42.14361 18.87174 4431 ft 213 kts 339°
2026-04-29 13:18 42.15716 18.86477 4345 ft 202 kts 339°
2026-04-29 13:18 42.17005 18.85823 4157 ft 198 kts 339°
2026-04-29 13:18 42.18300 18.85166 3920 ft 196 kts 339°
2026-04-29 13:18 42.19554 18.84521 3770 ft 190 kts 339°
2026-04-29 13:19 42.20765 18.83894 3628 ft 184 kts 339°
2026-04-29 13:19 42.21942 18.83284 3487 ft 178 kts 338°
2026-04-29 13:19 42.23065 18.82701 3353 ft 169 kts 338°
2026-04-29 13:19 42.24141 18.82143 3170 ft 163 kts 338°
2026-04-29 13:20 42.25169 18.81610 3006 ft 155 kts 338°
2026-04-29 13:20 42.26180 18.81086 2690 ft 160 kts 338°
2026-04-29 13:20 42.27260 18.80525 2303 ft 169 kts 339°
2026-04-29 13:20 42.28349 18.79962 2061 ft 167 kts 339°
2026-04-29 13:21 42.29422 18.79410 1826 ft 165 kts 339°
2026-04-29 13:21 42.30495 18.78855 1598 ft 163 kts 338°
2026-04-29 13:21 42.31507 18.78330 1418 ft 147 kts 337°
2026-04-29 13:21 42.32439 18.77846 1150 ft 138 kts 339°
2026-04-29 13:22 42.33353 18.77368 724 ft 144 kts 339°
2026-04-29 13:22 42.34269 18.77045 554 ft 138 kts 348°
2026-04-29 13:22 42.35229 18.76834 537 ft 136 kts 346°
2026-04-29 13:22 42.36165 18.76419 480 ft 145 kts 335°
2026-04-29 13:23 42.37074 18.75903 394 ft 142 kts 336°
2026-04-29 13:23 42.37946 18.75264 284 ft 142 kts 322°
2026-04-29 13:23 42.38708 18.74415 188 ft 145 kts 316°
2026-04-29 13:23 42.39477 18.73503 75 ft 148 kts 317°
2026-04-29 13:24 42.40221 18.72605 33 ft 132 kts 320°
2026-04-29 13:24 42.40717 18.72030 35 ft 56 kts 319°
2026-04-29 13:24 42.40906 18.71807 34 ft 27 kts 318°
2026-04-29 13:24 42.41050 18.71638 33 ft 27 kts 319°
2026-04-29 13:25 42.41194 18.71469 32 ft 27 kts 319°
2026-04-29 13:25 42.41344 18.71393 32 ft 0 kts 51°
2026-04-29 13:26 42.41345 18.71395 32 ft 1 kts 53°
2026-04-29 13:26 42.41354 18.71431 32 ft 6 kts 87°
2026-04-29 13:26 42.41322 18.71502 32 ft 11 kts 140°
2026-04-29 13:26 42.41260 18.71575 32 ft 5 kts 139°
2026-04-29 13:27 42.41259 18.71603 32 ft 2 kts 52°
2026-04-29 13:27 42.41273 18.71626 32 ft 3 kts 67°
2026-04-29 13:27 42.41267 18.71645 32 ft 1 kts 154°
2026-04-29 13:27 42.41257 18.71647 32 ft 0 kts 174°